VBD201 KSEA-CYYC

Flight info

Callsign VBD201
Flight time 1h 11m
Altitude 33000
Route ALPSE DCT YDC DCT MENBO DCT NORET IGVEP7
Aircraft B738/M-SDE2E3FGHIRWXY/LB1

Departure

Time 2026-05-06 06:35
Airport Seattle–Tacoma International Airport (KSEA)

Arrival

Time 2026-05-06 07:46
Airport Calgary International Airport (CYYC)
Time Latitude Longitude Altitude Speed Heading
2026-05-06 06:27 47.46098 -122.30366 383 ft 0 kts 180°
2026-05-06 06:31 47.46097 -122.30368 383 ft 0 kts 194°
2026-05-06 06:31 47.46096 -122.30374 383 ft 1 kts 246°
2026-05-06 06:31 47.46103 -122.30383 383 ft 3 kts 319°
2026-05-06 06:31 47.46143 -122.30402 383 ft 10 kts 348°
2026-05-06 06:32 47.46190 -122.30478 383 ft 11 kts 300°
2026-05-06 06:32 47.46260 -122.30512 383 ft 11 kts 347°
2026-05-06 06:32 47.46322 -122.30565 383 ft 10 kts 318°
2026-05-06 06:32 47.46362 -122.30635 383 ft 0 kts 304°
2026-05-06 06:33 47.46363 -122.30636 383 ft 0 kts 304°
2026-05-06 06:33 47.46369 -122.30653 383 ft 4 kts 293°
2026-05-06 06:34 47.46369 -122.30715 383 ft 8 kts 244°
2026-05-06 06:34 47.46267 -122.30762 383 ft 43 kts 184°
2026-05-06 06:34 47.45662 -122.30775 383 ft 129 kts 181°
2026-05-06 06:34 47.44563 -122.30787 681 ft 176 kts 180°
2026-05-06 06:35 47.43306 -122.30763 1763 ft 179 kts 178°
2026-05-06 06:35 47.42108 -122.30306 2803 ft 194 kts 147°
2026-05-06 06:35 47.41250 -122.28599 3106 ft 227 kts 106°
2026-05-06 06:35 47.41346 -122.26170 3354 ft 256 kts 66°
2026-05-06 06:36 47.42527 -122.24189 4020 ft 264 kts 27°
2026-05-06 06:36 47.44273 -122.23612 5001 ft 258 kts 353°
2026-05-06 06:36 47.46032 -122.24163 5858 ft 261 kts 344°
2026-05-06 06:36 47.47804 -122.24883 6635 ft 266 kts 344°
2026-05-06 06:37 47.49585 -122.25513 7422 ft 270 kts 348°
2026-05-06 06:37 47.51489 -122.25921 8240 ft 274 kts 354°
2026-05-06 06:37 47.53402 -122.26062 9025 ft 278 kts 358°
2026-05-06 06:37 47.55356 -122.25990 9818 ft 283 kts
2026-05-06 06:38 47.57337 -122.25755 10430 ft 293 kts
2026-05-06 06:38 47.59452 -122.25381 10609 ft 318 kts
2026-05-06 06:38 47.61722 -122.24878 10792 ft 341 kts
2026-05-06 06:38 47.64122 -122.24270 11049 ft 359 kts
2026-05-06 06:39 47.66605 -122.23586 11594 ft 365 kts
2026-05-06 06:39 47.69074 -122.22871 12293 ft 367 kts 10°
2026-05-06 06:39 47.71584 -122.22125 13011 ft 369 kts 10°
2026-05-06 06:39 47.74108 -122.21364 13677 ft 372 kts 10°
2026-05-06 06:40 47.76661 -122.20589 14268 ft 376 kts 10°
2026-05-06 06:40 47.79232 -122.19806 14833 ft 379 kts 10°
2026-05-06 06:40 47.81821 -122.19016 15421 ft 382 kts
2026-05-06 06:40 47.84436 -122.18217 15995 ft 385 kts
2026-05-06 06:41 47.87069 -122.17412 16577 ft 388 kts
2026-05-06 06:41 47.89725 -122.16600 17150 ft 391 kts
2026-05-06 06:41 47.92392 -122.15784 17703 ft 394 kts
2026-05-06 06:41 47.95065 -122.14965 18246 ft 397 kts
2026-05-06 06:42 47.97783 -122.14131 18743 ft 400 kts
2026-05-06 06:42 48.00515 -122.13291 19249 ft 402 kts
2026-05-06 06:42 48.03262 -122.12447 19757 ft 404 kts
2026-05-06 06:42 48.06028 -122.11595 20251 ft 407 kts
2026-05-06 06:43 48.08807 -122.10739 20746 ft 409 kts
2026-05-06 06:43 48.10977 -122.10070 21123 ft 411 kts
2026-05-06 06:43 48.13500 -122.09222 21533 ft 415 kts 14°
2026-05-06 06:43 48.16210 -122.07645 21974 ft 421 kts 23°
2026-05-06 06:44 48.18760 -122.05436 22456 ft 426 kts 32°
2026-05-06 06:44 48.21071 -122.02618 22892 ft 431 kts 38°
2026-05-06 06:44 48.23308 -121.99568 23339 ft 434 kts 39°
2026-05-06 06:44 48.25522 -121.96482 23750 ft 437 kts 40°
2026-05-06 06:45 48.27749 -121.93367 24103 ft 439 kts 40°
2026-05-06 06:45 48.29993 -121.90239 24449 ft 441 kts 39°
2026-05-06 06:45 48.32253 -121.87107 24788 ft 443 kts 39°
2026-05-06 06:45 48.34525 -121.83970 25092 ft 445 kts 39°
2026-05-06 06:46 48.36815 -121.80817 25442 ft 447 kts 39°
2026-05-06 06:46 48.39111 -121.77657 25774 ft 449 kts 39°
2026-05-06 06:46 48.41421 -121.74477 26093 ft 451 kts 39°
2026-05-06 06:46 48.43738 -121.71284 26431 ft 453 kts 39°
2026-05-06 06:47 48.46071 -121.68066 26755 ft 455 kts 39°
2026-05-06 06:47 48.48409 -121.64836 27075 ft 457 kts 39°
2026-05-06 06:47 48.50757 -121.61586 27369 ft 458 kts 39°
2026-05-06 06:47 48.53107 -121.58329 27635 ft 460 kts 39°
2026-05-06 06:48 48.55469 -121.55052 27901 ft 462 kts 39°
2026-05-06 06:48 48.57833 -121.51768 28183 ft 463 kts 39°
2026-05-06 06:48 48.60171 -121.48514 28583 ft 462 kts 39°
2026-05-06 06:48 48.62528 -121.45227 29030 ft 460 kts 39°
2026-05-06 06:49 48.64872 -121.41956 29475 ft 458 kts 39°
2026-05-06 06:49 48.67236 -121.38652 29890 ft 457 kts 39°
2026-05-06 06:49 48.69539 -121.35430 30251 ft 457 kts 39°
2026-05-06 06:49 48.71871 -121.32165 30577 ft 456 kts 39°
2026-05-06 06:50 48.74192 -121.28910 30956 ft 454 kts 39°
2026-05-06 06:50 48.76495 -121.25674 31346 ft 452 kts 39°
2026-05-06 06:50 48.78806 -121.22425 31584 ft 453 kts 39°
2026-05-06 06:50 48.81120 -121.19169 31827 ft 455 kts 39°
2026-05-06 06:51 48.83438 -121.15902 32124 ft 453 kts 39°
2026-05-06 06:51 48.85737 -121.12655 32454 ft 451 kts 39°
2026-05-06 06:51 48.88033 -121.09409 32740 ft 450 kts 38°
2026-05-06 06:51 48.90320 -121.06172 32994 ft 450 kts 39°
2026-05-06 06:52 48.92620 -121.02913 32998 ft 454 kts 39°
2026-05-06 06:52 48.97248 -120.96343 32996 ft 453 kts 39°
2026-05-06 06:53 49.01816 -120.89832 32972 ft 448 kts 39°
2026-05-06 06:53 49.06353 -120.83357 32999 ft 445 kts 39°
2026-05-06 06:54 49.10866 -120.76896 32984 ft 445 kts 39°
2026-05-06 06:54 49.15349 -120.70464 32967 ft 445 kts 39°
2026-05-06 06:55 49.19860 -120.63973 32978 ft 446 kts 39°
2026-05-06 06:55 49.24377 -120.57455 32972 ft 447 kts 39°
2026-05-06 06:56 49.28903 -120.50907 32969 ft 448 kts 39°
2026-05-06 06:56 49.33437 -120.44332 32947 ft 449 kts 39°
2026-05-06 06:57 49.37712 -120.37302 32945 ft 456 kts 50°
2026-05-06 06:57 49.40664 -120.28583 32954 ft 465 kts 63°
2026-05-06 06:58 49.43014 -120.19312 32936 ft 466 kts 64°
2026-05-06 06:58 49.45341 -120.10016 32926 ft 466 kts 64°
2026-05-06 06:59 49.47700 -120.00741 32924 ft 466 kts 63°
2026-05-06 06:59 49.50073 -119.91477 32911 ft 466 kts 63°
2026-05-06 07:00 49.52443 -119.82217 32912 ft 464 kts 63°
2026-05-06 07:00 49.54798 -119.72971 32907 ft 464 kts 63°
2026-05-06 07:01 49.57139 -119.63736 32919 ft 462 kts 63°
2026-05-06 07:01 49.59470 -119.54506 32909 ft 462 kts 63°
2026-05-06 07:02 49.61776 -119.45335 32915 ft 461 kts 63°
2026-05-06 07:02 49.64076 -119.36150 32934 ft 461 kts 63°
2026-05-06 07:03 49.66390 -119.26873 32922 ft 461 kts 63°
2026-05-06 07:03 49.68680 -119.17651 32945 ft 460 kts 63°
2026-05-06 07:04 49.70961 -119.08429 32947 ft 459 kts 63°
2026-05-06 07:04 49.73232 -118.99208 32950 ft 458 kts 63°
2026-05-06 07:05 49.75488 -118.90011 32963 ft 457 kts 63°
2026-05-06 07:05 49.77733 -118.80819 32971 ft 457 kts 63°
2026-05-06 07:06 49.79970 -118.71625 32964 ft 456 kts 63°
2026-05-06 07:06 49.82198 -118.62425 32946 ft 456 kts 63°
2026-05-06 07:07 49.84421 -118.53212 32951 ft 457 kts 63°
2026-05-06 07:07 49.86638 -118.43983 32954 ft 457 kts 63°
2026-05-06 07:08 49.88850 -118.34735 32951 ft 458 kts 63°
2026-05-06 07:08 49.91040 -118.25541 32954 ft 457 kts 63°
2026-05-06 07:09 49.93237 -118.16275 32953 ft 457 kts 63°
2026-05-06 07:09 49.95422 -118.07021 32969 ft 457 kts 63°
2026-05-06 07:10 49.97597 -117.97767 32902 ft 454 kts 63°
2026-05-06 07:10 49.98665 -117.93194 33016 ft 448 kts 63°
2026-05-06 07:10 49.99733 -117.88622 32976 ft 452 kts 63°
2026-05-06 07:11 50.01902 -117.79357 32978 ft 458 kts 63°
2026-05-06 07:11 50.04065 -117.70042 32972 ft 457 kts 63°
2026-05-06 07:12 50.06216 -117.60729 32990 ft 457 kts 63°
2026-05-06 07:12 50.08366 -117.51384 32962 ft 459 kts 63°
2026-05-06 07:13 50.10509 -117.42028 32973 ft 458 kts 64°
2026-05-06 07:13 50.12641 -117.32679 32974 ft 458 kts 64°
2026-05-06 07:14 50.14763 -117.23329 32983 ft 457 kts 63°
2026-05-06 07:14 50.16872 -117.14001 32980 ft 455 kts 63°
2026-05-06 07:15 50.18930 -117.04841 32970 ft 446 kts 63°
2026-05-06 07:15 50.20991 -116.95669 32994 ft 452 kts 63°
2026-05-06 07:16 50.23079 -116.86331 33003 ft 456 kts 64°
2026-05-06 07:16 50.25163 -116.76943 32996 ft 458 kts 64°
2026-05-06 07:17 50.27240 -116.67543 32989 ft 457 kts 64°
2026-05-06 07:17 50.29301 -116.58174 32994 ft 453 kts 63°
2026-05-06 07:18 50.31332 -116.48895 33031 ft 450 kts 64°
2026-05-06 07:18 50.33350 -116.39654 33029 ft 448 kts 63°
2026-05-06 07:19 50.35354 -116.30424 33043 ft 447 kts 64°
2026-05-06 07:19 50.37346 -116.21219 33045 ft 445 kts 63°
2026-05-06 07:20 50.39329 -116.12031 33053 ft 445 kts 63°
2026-05-06 07:20 50.41374 -116.02831 32379 ft 450 kts 63°
2026-05-06 07:20 50.42405 -115.98216 31719 ft 448 kts 63°
2026-05-06 07:21 50.43087 -115.95157 31267 ft 449 kts 63°
2026-05-06 07:21 50.44112 -115.90541 30701 ft 446 kts 63°
2026-05-06 07:21 50.45449 -115.84480 29997 ft 441 kts 63°
2026-05-06 07:21 50.46122 -115.81419 29646 ft 438 kts 63°
2026-05-06 07:22 50.47107 -115.76932 29108 ft 433 kts 63°
2026-05-06 07:22 50.48082 -115.72480 28571 ft 430 kts 63°
2026-05-06 07:22 50.49048 -115.68060 28052 ft 425 kts 63°
2026-05-06 07:22 50.50001 -115.63694 27529 ft 421 kts 63°
2026-05-06 07:23 50.50945 -115.59364 27042 ft 417 kts 63°
2026-05-06 07:23 50.51882 -115.55067 26546 ft 414 kts 63°
2026-05-06 07:23 50.52811 -115.50790 26046 ft 412 kts 63°
2026-05-06 07:23 50.53732 -115.46540 25534 ft 410 kts 63°
2026-05-06 07:24 50.54643 -115.42316 25062 ft 406 kts 64°
2026-05-06 07:24 50.55543 -115.38117 24547 ft 404 kts 64°
2026-05-06 07:24 50.56427 -115.33991 24060 ft 402 kts 64°
2026-05-06 07:24 50.57315 -115.29834 23578 ft 400 kts 64°
2026-05-06 07:25 50.58193 -115.25717 22983 ft 394 kts 64°
2026-05-06 07:25 50.59050 -115.21674 22554 ft 387 kts 64°
2026-05-06 07:25 50.59900 -115.17674 22081 ft 384 kts 64°
2026-05-06 07:25 50.60747 -115.13692 21587 ft 384 kts 64°
2026-05-06 07:26 50.61592 -115.09712 21097 ft 382 kts 64°
2026-05-06 07:26 50.62427 -115.05760 20643 ft 379 kts 65°
2026-05-06 07:26 50.63256 -115.01831 20189 ft 377 kts 65°
2026-05-06 07:26 50.64081 -114.97919 19732 ft 375 kts 65°
2026-05-06 07:27 50.64898 -114.94030 19285 ft 373 kts 65°
2026-05-06 07:27 50.65709 -114.90161 18809 ft 371 kts 65°
2026-05-06 07:27 50.66512 -114.86318 18353 ft 367 kts 66°
2026-05-06 07:27 50.67310 -114.82508 17872 ft 365 kts 66°
2026-05-06 07:28 50.68103 -114.78707 17402 ft 364 kts 66°
2026-05-06 07:28 50.68891 -114.74924 16945 ft 361 kts 66°
2026-05-06 07:28 50.70560 -114.67547 16034 ft 350 kts 58°
2026-05-06 07:29 50.71799 -114.64296 15619 ft 342 kts 49°
2026-05-06 07:29 50.73336 -114.61498 15210 ft 335 kts 41°
2026-05-06 07:29 50.74968 -114.58887 14713 ft 334 kts 40°
2026-05-06 07:29 50.76599 -114.56281 14313 ft 332 kts 41°
2026-05-06 07:30 50.78198 -114.53699 13942 ft 329 kts 41°
2026-05-06 07:30 50.79791 -114.51099 13475 ft 327 kts 41°
2026-05-06 07:30 50.81369 -114.48539 13120 ft 321 kts 40°
2026-05-06 07:30 50.82954 -114.46105 12807 ft 317 kts 39°
2026-05-06 07:31 50.84554 -114.43702 12419 ft 318 kts 39°
2026-05-06 07:31 50.86150 -114.41305 12001 ft 323 kts 39°
2026-05-06 07:31 50.87814 -114.38790 11566 ft 329 kts 39°
2026-05-06 07:31 50.89469 -114.36273 11131 ft 329 kts 40°
2026-05-06 07:32 50.91103 -114.33777 10907 ft 319 kts 40°
2026-05-06 07:32 50.92597 -114.31435 11243 ft 285 kts 41°
2026-05-06 07:32 50.93910 -114.29264 11266 ft 263 kts 41°
2026-05-06 07:32 50.95110 -114.27268 11161 ft 245 kts 41°
2026-05-06 07:33 50.96246 -114.25387 11032 ft 229 kts 40°
2026-05-06 07:33 50.97314 -114.23622 10914 ft 214 kts 40°
2026-05-06 07:33 50.98340 -114.21932 10576 ft 213 kts 40°
2026-05-06 07:33 50.99412 -114.20176 9914 ft 231 kts 41°
2026-05-06 07:34 51.00515 -114.18361 9905 ft 235 kts 41°
2026-05-06 07:34 51.01886 -114.16734 9702 ft 256 kts 17°
2026-05-06 07:34 51.03645 -114.16347 9441 ft 256 kts 359°
2026-05-06 07:34 51.05421 -114.16367 9133 ft 255 kts 358°
2026-05-06 07:35 51.07191 -114.16400 8838 ft 254 kts 358°
2026-05-06 07:35 51.08952 -114.16425 8613 ft 250 kts 358°
2026-05-06 07:35 51.10666 -114.16439 8500 ft 242 kts 359°
2026-05-06 07:35 51.12327 -114.16445 8396 ft 233 kts 359°
2026-05-06 07:36 51.13898 -114.16447 8317 ft 220 kts 359°
2026-05-06 07:36 51.15382 -114.16448 8202 ft 206 kts 359°
2026-05-06 07:36 51.16766 -114.16448 8081 ft 194 kts 359°
2026-05-06 07:36 51.18084 -114.16449 8005 ft 185 kts 358°
2026-05-06 07:37 51.19379 -114.16453 7918 ft 188 kts 358°
2026-05-06 07:37 51.20697 -114.16457 7854 ft 191 kts 358°
2026-05-06 07:37 51.22024 -114.16460 7773 ft 191 kts 358°
2026-05-06 07:37 51.23343 -114.16463 7710 ft 188 kts 358°
2026-05-06 07:38 51.24650 -114.16466 7630 ft 186 kts 358°
2026-05-06 07:38 51.25936 -114.16469 7558 ft 185 kts 358°
2026-05-06 07:38 51.27221 -114.16472 7478 ft 185 kts 358°
2026-05-06 07:38 51.28508 -114.16475 7408 ft 185 kts 358°
2026-05-06 07:39 51.29800 -114.16478 7330 ft 186 kts 358°
2026-05-06 07:39 51.31092 -114.16481 7273 ft 186 kts 358°
2026-05-06 07:39 51.32352 -114.16122 7184 ft 183 kts 29°
2026-05-06 07:39 51.33160 -114.14639 7096 ft 179 kts 70°
2026-05-06 07:40 51.33288 -114.12705 7043 ft 175 kts 95°
2026-05-06 07:40 51.33233 -114.10774 6966 ft 177 kts 94°
2026-05-06 07:40 51.33180 -114.08822 6877 ft 175 kts 95°
2026-05-06 07:40 51.33125 -114.06901 6818 ft 171 kts 95°
2026-05-06 07:41 51.33069 -114.04998 6731 ft 171 kts 95°
2026-05-06 07:41 51.33011 -114.03110 6651 ft 170 kts 97°
2026-05-06 07:41 51.32622 -114.01378 6584 ft 164 kts 127°
2026-05-06 07:41 51.31847 -114.00078 6434 ft 162 kts 156°
2026-05-06 07:42 51.30800 -113.99714 6370 ft 151 kts 173°
2026-05-06 07:42 51.29771 -113.99455 6148 ft 146 kts 174°
2026-05-06 07:42 51.28771 -113.99251 5988 ft 145 kts 174°
2026-05-06 07:42 51.27771 -113.99101 5831 ft 144 kts 177°
2026-05-06 07:43 51.26773 -113.99040 5691 ft 143 kts 179°
2026-05-06 07:43 51.25779 -113.99020 5544 ft 142 kts 180°
2026-05-06 07:43 51.24793 -113.99015 5398 ft 141 kts 180°
2026-05-06 07:43 51.23809 -113.99015 5273 ft 141 kts 180°
2026-05-06 07:44 51.22824 -113.99016 5222 ft 141 kts 180°
2026-05-06 07:44 51.21842 -113.99018 5113 ft 142 kts 180°
2026-05-06 07:44 51.20866 -113.99020 4934 ft 139 kts 180°
2026-05-06 07:44 51.19925 -113.99021 4734 ft 131 kts 180°
2026-05-06 07:45 51.19034 -113.99022 4527 ft 127 kts 180°
2026-05-06 07:45 51.18132 -113.99024 4325 ft 131 kts 180°
2026-05-06 07:45 51.17218 -113.99025 4113 ft 131 kts 180°
2026-05-06 07:45 51.16316 -113.99027 3936 ft 132 kts 180°
2026-05-06 07:46 51.15396 -113.99028 3779 ft 133 kts 180°
2026-05-06 07:46 51.14475 -113.99030 3622 ft 129 kts 180°
2026-05-06 07:46 51.13801 -113.99036 3604 ft 37 kts 181°
2026-05-06 07:46 51.13616 -113.99051 3603 ft 23 kts 190°
2026-05-06 07:47 51.13509 -113.99116 3600 ft 13 kts 210°
2026-05-06 07:47 51.13433 -113.99184 3601 ft 13 kts 208°
2026-05-06 07:47 51.13356 -113.99250 3599 ft 12 kts 209°
2026-05-06 07:47 51.13279 -113.99301 3599 ft 12 kts 188°
2026-05-06 07:48 51.13200 -113.99306 3598 ft 11 kts 184°
2026-05-06 07:48 51.13166 -113.99406 3597 ft 12 kts 262°
2026-05-06 07:48 51.13161 -113.99544 3586 ft 13 kts 271°
2026-05-06 07:48 51.13162 -113.99694 3593 ft 14 kts 269°
2026-05-06 07:49 51.13161 -113.99861 3591 ft 16 kts 270°
2026-05-06 07:49 51.13160 -114.00049 3587 ft 18 kts 260°
2026-05-06 07:49 51.13097 -114.00140 3579 ft 9 kts 224°
2026-05-06 07:49 51.13088 -114.00154 3584 ft 0 kts 224°